Windsor Heights, WV

11:18 AM EST on February 10, 2016 (GMT -0500)
Wheeling-Ohio County

Weather History for KHLG - October, 2011

Change the Weather History Date:

Monday, October 17, 2011

  Actual Average Record
Temperature  
Mean Temperature 55 °F 53 °F  
Max Temperature 63 °F 62 °F 78 °F (1950)
Min Temperature 47 °F 43 °F 32 °F (1952)
Degree Days  
Heating Degree Days 10 12  
Month to date heating degree days 33 168  
Since 1 July heating degree days 33 269  
Cooling Degree Days 0    
Month to date cooling degree days 0  
Year to date cooling degree days 0  
Growing Degree Days 4 (Base 50)    
Moisture  
Dew Point 34 °F    
Average Humidity 53    
Maximum Humidity 83    
Minimum Humidity 23    
Precipitation  
Precipitation T in 0.08 in 1.61 in (2006)
Month to date precipitation 0.51 1.42  
Sea Level Pressure  
Sea Level Pressure 29.86 in    
Wind  
Wind Speed 9 mph (WSW)    
Max Wind Speed 22 mph    
Max Gust Speed 31 mph    
Visibility 10 miles    
Events Rain    
T = Trace of Precipitation, MM = Missing Value Source: NWS Daily Summary

Daily Weather History Graph

Daily Weather History Graph

Search for Another Location

Airport or City:

Trip Planner

Search our weather history database for the weather conditions in past years. The results will help you decide how hot, cold, wet, or windy it might be!

Date:

Astronomy

Oct. 17, 2011 Rise Set
Actual Time 7:35 AM EDT 6:40 PM EDT
Civil Twilight 7:07 AM EDT 7:07 PM EDT
Nautical Twilight 6:36 AM EDT 7:39 PM EDT
Astronomical Twilight 6:04 AM EDT 8:10 PM EDT
Moon 10:19 PM EDT (10/17) 12:40 PM EDT (10/17)
Length of Visible Light 12h 00m
Length of Day
11h 05m
Waning Gibbous, 74% of the Moon is Illuminated
Oct 17
Waning Gibbous
Oct 19
Last Quarter
Oct 26
New
Nov 2
First Quarter
Nov 10
Full

Hourly Weather History & Observations

Time (EDT) Temp. Dew Point Humidity Pressure Visibility Wind Dir Wind Speed Gust Speed Precip Events Conditions
12:53 AM 53.1 °F 46.9 °F 80% 29.82 in 10.0 mi WNW 4.6 mph - 0.01 in Rain Light Rain
1:53 AM 52.0 °F 46.0 °F 80% 29.83 in 10.0 mi West 3.5 mph - 0.00 in Rain Light Rain
2:53 AM 52.0 °F 45.0 °F 77% 29.84 in 10.0 mi WSW 5.8 mph - 0.00 in   Overcast
4:53 AM 48.9 °F 43.0 °F 80% 29.86 in 10.0 mi SW 5.8 mph - N/A   Scattered Clouds
5:53 AM 48.9 °F 42.1 °F 77% 29.86 in 10.0 mi SW 5.8 mph - N/A   Clear
6:53 AM 48.0 °F 41.0 °F 77% 29.88 in 10.0 mi WSW 6.9 mph - N/A   Clear
7:53 AM 46.9 °F 41.0 °F 80% 29.88 in 10.0 mi SSW 6.9 mph - N/A   Clear
8:53 AM 48.0 °F 42.1 °F 80% 29.91 in 10.0 mi SW 9.2 mph - N/A   Clear
9:53 AM 51.1 °F 39.9 °F 66% 29.91 in 10.0 mi SW 9.2 mph 16.1 mph N/A   Clear
10:53 AM 54.0 °F 36.0 °F 51% 29.91 in 10.0 mi SW 10.4 mph 19.6 mph N/A   Clear
11:53 AM 57.0 °F 30.9 °F 37% 29.89 in 10.0 mi West 13.8 mph 25.3 mph N/A   Clear
12:53 PM 59.0 °F 26.1 °F 28% 29.87 in 10.0 mi WSW 16.1 mph 28.8 mph N/A   Clear
1:53 PM 61.0 °F 25.0 °F 25% 29.85 in 10.0 mi WSW 11.5 mph 25.3 mph N/A   Clear
2:53 PM 62.1 °F 24.1 °F 23% 29.83 in 10.0 mi WSW 19.6 mph 28.8 mph N/A   Clear
3:53 PM 63.0 °F 26.1 °F 25% 29.82 in 10.0 mi WSW 16.1 mph 23.0 mph N/A   Clear
4:53 PM 61.0 °F 25.0 °F 25% 29.83 in 10.0 mi WSW 12.7 mph 23.0 mph N/A   Clear
5:53 PM 59.0 °F 28.0 °F 31% 29.82 in 10.0 mi WSW 4.6 mph - N/A   Clear
6:53 PM 59.0 °F 27.0 °F 29% 29.83 in 10.0 mi SW 10.4 mph - N/A   Clear
7:53 PM 57.0 °F 28.0 °F 33% 29.84 in 10.0 mi SW 8.1 mph - N/A   Clear
8:53 PM 57.9 °F 27.0 °F 31% 29.85 in 10.0 mi SW 10.4 mph 17.3 mph N/A   Partly Cloudy
9:53 PM 57.0 °F 28.0 °F 33% 29.86 in 10.0 mi SW 5.8 mph - N/A   Mostly Cloudy
10:53 PM 57.0 °F 28.0 °F 33% 29.85 in 10.0 mi WSW 6.9 mph - N/A   Overcast
11:53 PM 57.0 °F 28.0 °F 33% 29.86 in 10.0 mi WSW 8.1 mph - N/A   Overcast